Regional Weather Roundup
Issued by NWS Cleveland, OH

Home | Current Version | Previous Version | Text Only | Print | Product List | Glossary Off
Versions: 1 2 3 4 5 6 7 8 9 10 11 12 13 14 15 16 17 18 19 20 21 22 23 24 25 26 27 28 29 30 31 32 33 34 35 36 37 38 39 40 41 42 43 44 45 46 47 48 49 50

000
ASUS41 KCLE 222112
RWRCLE
OHIO REGIONAL WEATHER ROUNDUP
NATIONAL WEATHER SERVICE WILMINGTON, OH
400 PM EST WED NOV 22 2017

NOTE: "FAIR" INDICATES FEW OR NO CLOUDS BELOW 12,000 FEET WITH NO
SIGNIFICANT WEATHER AND/OR OBSTRUCTIONS TO VISIBILITY.

OHZ001>008-015>018-024>027-034-035-043-044-222200-
   NORTHWEST OHIO

CITY           SKY/WX    TMP DP  RH WIND       PRES   REMARKS
DEFIANCE       FAIR      35  18  49 NW8       30.27F WCI  29
FINDLAY        CLOUDY    33  19  56 N8        30.26S WCI  26
TOLEDO EXPRESS FAIR      36  19  50 CALM      30.26F
TOLEDO EXEC    FAIR      36  18  48 W7        30.27F
LIMA           FAIR      33  22  63 W7        30.25S WCI  27
$$

OHZ009>014-019>023-028>033-038-089-222200-
   NORTHEAST OHIO

CITY           SKY/WX    TMP DP  RH WIND       PRES   REMARKS
CLE-HOPKINS    CLOUDY    33  20  58 W13       30.28R WCI  24
CLE-LAKEFRONT  CLOUDY    34  20  56 W12       30.25R WCI  25
CUY CO. ARPT   CLOUDY    34  25  69 NW12      30.25R WCI  25
LORAIN-ELYRIA  CLOUDY    31  16  54 NW8       30.27R WCI  23
ASHTABULA      CLOUDY    32  22  66 W8        30.23R WCI  25
AKRON-CANTON   CLOUDY    33  20  58 NW10      30.22R WCI  25
WOOSTER        CLOUDY    31  22  69 N9        30.24S WCI  23
MANSFIELD      CLOUDY    31  20  63 W7        30.24R WCI  24
YOUNGSTOWN     CLOUDY    32  20  61 W7        30.21R WCI  26
$$

OHZ042-051>053-060>062-070>072-077>081-222200-
  SOUTHWEST OHIO

CITY           SKY/WX    TMP DP  RH WIND       PRES   REMARKS
CINC-COVINGTON FAIR      38  25  59 N3        30.26S
CINC-LUNKEN    CLOUDY    38  25  59 NE8       30.29S
HAMILTON       PTSUNNY   37  25  61 N5        30.29S
DAYTON         PTSUNNY   34  23  64 N10       30.27R WCI  26
WRIGHT-PAT AFB FAIR      37  20  49 W5        30.26S
DAYTON GENERAL PTSUNNY   36  23  59 NW7       30.26R
WILMINGTON     FAIR      37  23  56 NW7       30.25R
$$

OHZ036-037-039>041-045>050-054>059-063>069-073>076-082>088-222200-
  CENTRAL AND SOUTHEAST OHIO

CITY           SKY/WX    TMP DP  RH WIND       PRES   REMARKS
COLUMBUS       CLOUDY    35  22  58 NW10      30.26R WCI  27
OSU AIRPORT    CLOUDY    33  22  63 N10       30.26R WCI  25
BOLTON FIELD   CLOUDY    34  23  64 N7        30.26S WCI  28
RICKENBACK AFB CLOUDY    34  22  61 NW8       30.26S WCI  27
NEWARK         FAIR      36  20  52 W7        30.24R
MARION         CLOUDY    32  19  58 W6        30.26R WCI  26
LANCASTER      CLOUDY    35  23  61 NW8       30.25S WCI  29
ZANESVILLE     CLOUDY    37  21  52 N5        30.23S
NEW PHILLY     CLOUDY    34  22  61 NW7       30.24R WCI  28
$$




USA.gov is the U.S. government's official web portal to all federal, state and local government web resources and services.